Home > Weather > Hialeah > Past weeks

Flag for USA Past Weather in Hialeah, Florida, USA — Yesterday and Last 2 Weeks

Now
91 °F

Passing clouds.


Feels Like: 98 °F
Forecast: 79 / 92 °F
Wind: 14 mph from Southeast

Location: Opa Locka Airport

Current Time: Jul 30, 2016 at 4:54:26 PM

Latest Report: Jul 30, 2016 at 3:53 PM


Visibility: 10 mi

Pressure: 30.01 "Hg

Humidity: 52%

Dew Point: 71 °F

Location of HialeahLocation

Past Weather in Hialeah — Graph

°F

Hialeah Temperature Yesterday

Maximum temperature yesterday: 92 °F (at 2:53 PM)
Minimum temperature yesterday: 79 °F (at 12:53 PM)
Average temperature yesterday: 85 °F

High & Low Weather Summary for the Past Weeks

 TemperatureHumidityPressure
High94 °F (Jul 30, 1:53 PM)94% (Jul 16, 6:53 AM)30.21 "Hg (Jul 16, 6:53 AM)
Low76 °F (Jul 16, 2:53 AM)47% (Jul 30, 12:53 PM)30.00 "Hg (Jul 15, 6:53 PM)
Average84 °F73%30.07 "Hg
* Reported Jul 15 2:53 PM — Jul 30 2:53 PM, Hialeah, Weather by CustomWeather, © 2016

Note: Actual official high and low records may vary slightly from our data, if they occured in-between our weather recording intervals... More about our weather records

Advertising

Hialeah Weather History for the Previous 24 Hours

Scroll right to see more
 ConditionsComfort  
Time TempWeatherWind HumidityBarometerVisibility
2:53 PM
Sat, Jul 30
92 °FThundershowers. Scattered clouds.14 mph52%30.03 "Hg10 mi
1:53 PM94 °FSunny.10 mph52%30.05 "Hg10 mi
12:53 PM93 °FScattered clouds.6 mph47%30.06 "Hg10 mi
11:53 AM92 °FPassing clouds.3 mph51%30.07 "Hg10 mi
10:53 AM88 °FSunny.3 mph57%30.07 "Hg10 mi
9:53 AM88 °FSunny.No wind55%30.07 "Hg10 mi
8:53 AM86 °FSunny.No wind72%30.07 "Hg10 mi
7:53 AM82 °FSunny.No wind77%30.06 "Hg10 mi
6:53 AM79 °FClear.No wind84%30.03 "Hg10 mi
5:53 AM79 °FClear.No wind84%30.02 "Hg10 mi
4:53 AM80 °FClear.No wind79%30.02 "Hg10 mi
3:53 AM79 °FClear.No wind84%30.03 "Hg10 mi
2:53 AM80 °FClear.No wind81%30.04 "Hg10 mi
1:53 AM81 °FClear.No wind79%30.05 "Hg10 mi
12:53 AM81 °FClear.No wind79%30.05 "Hg10 mi
11:53 PM
Fri, Jul 29
81 °FClear.5 mph79%30.05 "Hg10 mi
10:53 PM84 °FPassing clouds.No wind65%30.05 "Hg10 mi
9:53 PM82 °FPassing clouds.3 mph72%30.05 "Hg10 mi
8:53 PM83 °FSunny.3 mph65%30.03 "Hg10 mi
7:53 PM84 °FBroken clouds.5 mph63%30.04 "Hg10 mi
7:03 PM88 °FSunny.6 mph63%30.03 "Hg10 mi
6:53 PM89 °FThundershowers. Sunny.6 mph61%30.02 "Hg10 mi
5:53 PM90 °FPassing clouds.6 mph61%30.02 "Hg10 mi
4:53 PM91 °FSunny.7 mph57%30.02 "Hg10 mi
Weather by CustomWeather, © 2016

See weather overviewHow to use our weather pages